When you browse on this site, cookies collect data to enhance your experience and personalize the content and advertising you see.
Visit our Privacy Policy to learn more. By continuing to use the site, you agree to this use of cookies and data.
  • In Romania
  • List of Countries
  • For 7 days
  • Water Temperature
  • Satellite Maps
  • Weather Map
  • Weather Widgets
  • user-avatar
    Login

    Hourly Weather Craiova

    Today, 24 July, Wednesday

    Time Temperature Precipitation Wind Pressure Humidity
    00:00 +22°C° 0.2 mm 4 mps 751 mmHg 71%
    01:00 +21°C° 0.2 mm 5 mps 751 mmHg 79%
    02:00 +19°C° 0.2 mm 5 mps 751 mmHg 87%
    03:00 +19°C° 0.3 mm 4 mps 751 mmHg 88%
    04:00 +19°C° 0.3 mm 4 mps 751 mmHg 89%
    05:00 +19°C° 0.3 mm 3 mps 752 mmHg 89%
    06:00 +19°C° 0.1 mm 2 mps 752 mmHg 87%
    07:00 +20°C° 0.1 mm 1 mps 752 mmHg 84%
    08:00 +21°C° 0.1 mm 1 mps 752 mmHg 81%
    09:00 +22°C° 0 mm 1 mps 753 mmHg 75%
    10:00 +23°C° 0 mm 2 mps 753 mmHg 69%
    11:00 +25°C° 0 mm 2 mps 753 mmHg 64%
    12:00 +26°C° 0.1 mm 3 mps 753 mmHg 59%
    13:00 +27°C° 0.1 mm 3 mps 752 mmHg 55%
    14:00 +28°C° 0.1 mm 3 mps 752 mmHg 51%
    15:00 +28°C° 0 mm 3 mps 752 mmHg 49%
    16:00 +29°C° 0 mm 3 mps 752 mmHg 47%
    17:00 +29°C° 0 mm 3 mps 751 mmHg 45%
    18:00 +28°C° 0 mm 3 mps 751 mmHg 49%
    19:00 +26°C° 0 mm 3 mps 751 mmHg 53%
    20:00 +25°C° 0 mm 3 mps 752 mmHg 56%
    21:00 +24°C° 0 mm 3 mps 752 mmHg 58%
    22:00 +23°C° 0 mm 2 mps 752 mmHg 59%
    23:00 +21°C° 0 mm 2 mps 753 mmHg 61%

    Tomorrow, 25 July, Thursday

    Time Temperature Precipitation Wind Pressure Humidity
    00:00 +21°C° 0 mm 2 mps 752 mmHg 63%
    01:00 +21°C° 0 mm 1 mps 752 mmHg 66%
    02:00 +21°C° 0 mm 1 mps 752 mmHg 68%
    03:00 +21°C° 0 mm 1 mps 752 mmHg 69%
    04:00 +20°C° 0 mm 1 mps 752 mmHg 70%
    05:00 +20°C° 0 mm 1 mps 753 mmHg 71%
    06:00 +22°C° 0 mm 1 mps 753 mmHg 67%
    07:00 +23°C° 0 mm 1 mps 753 mmHg 63%
    08:00 +25°C° 0 mm 1 mps 753 mmHg 59%
    09:00 +26°C° 0 mm 1 mps 753 mmHg 54%
    10:00 +28°C° 0 mm 1 mps 753 mmHg 49%
    11:00 +30°C° 0 mm 1 mps 753 mmHg 45%
    12:00 +31°C° 0 mm 1 mps 753 mmHg 42%
    13:00 +30°C° 0 mm 0 mps 752 mmHg 39%
    14:00 +30°C° 0 mm 0 mps 752 mmHg 36%
    15:00 +30°C° 0 mm 0 mps 752 mmHg 36%
    16:00 +32°C° 0 mm 1 mps 752 mmHg 36%
    17:00 +32°C° 0 mm 1 mps 751 mmHg 35%
    18:00 +31°C° 0 mm 1 mps 751 mmHg 39%
    19:00 +29°C° 0 mm 2 mps 751 mmHg 43%
    20:00 +27°C° 0 mm 2 mps 751 mmHg 47%
    21:00 +27°C° 0 mm 2 mps 751 mmHg 50%
    22:00 +26°C° 0 mm 1 mps 752 mmHg 52%
    23:00 +25°C° 0 mm 1 mps 752 mmHg 55%

    Day after tomorrow, 26 July, Friday

    Time Temperature Precipitation Wind Pressure Humidity
    00:00 +24°C° 0 mm 1 mps 751 mmHg 58%
    01:00 +24°C° 0 mm 1 mps 751 mmHg 60%
    02:00 +23°C° 0 mm 1 mps 751 mmHg 63%
    03:00 +22°C° 0 mm 1 mps 751 mmHg 66%
    04:00 +22°C° 0 mm 1 mps 751 mmHg 70%
    05:00 +21°C° 0 mm 1 mps 750 mmHg 73%
    06:00 +22°C° 0 mm 1 mps 750 mmHg 69%
    07:00 +24°C° 0 mm 1 mps 750 mmHg 64%
    08:00 +26°C° 0 mm 1 mps 750 mmHg 59%
    09:00 +27°C° 0 mm 1 mps 750 mmHg 54%
    10:00 +29°C° 0 mm 1 mps 749 mmHg 49%
    11:00 +31°C° 0 mm 1 mps 749 mmHg 43%
    12:00 +32°C° 0 mm 1 mps 749 mmHg 40%
    13:00 +33°C° 0 mm 1 mps 748 mmHg 36%
    14:00 +34°C° 0 mm 1 mps 748 mmHg 32%
    15:00 +35°C° 0 mm 1 mps 747 mmHg 31%
    16:00 +35°C° 0 mm 1 mps 747 mmHg 29%
    17:00 +35°C° 0 mm 1 mps 747 mmHg 28%
    18:00 +33°C° 0 mm 1 mps 746 mmHg 33%
    19:00 +31°C° 0 mm 2 mps 746 mmHg 38%
    20:00 +29°C° 0 mm 2 mps 746 mmHg 43%
    21:00 +28°C° 0 mm 2 mps 746 mmHg 46%
    22:00 +27°C° 0 mm 2 mps 746 mmHg 50%
    23:00 +26°C° 0 mm 2 mps 746 mmHg 54%

    27 July, Saturday

    Time Temperature Precipitation Wind Pressure Humidity
    00:00 +25°C° 0 mm 2 mps 746 mmHg 57%
    01:00 +24°C° 0 mm 2 mps 746 mmHg 61%
    02:00 +23°C° 0 mm 1 mps 745 mmHg 64%
    03:00 +23°C° 0 mm 2 mps 745 mmHg 66%
    04:00 +21°C° 0 mm 2 mps 745 mmHg 69%
    05:00 +20°C° 0 mm 2 mps 745 mmHg 72%
    06:00 +23°C° 0 mm 2 mps 745 mmHg 67%
    07:00 +25°C° 0 mm 2 mps 745 mmHg 62%
    08:00 +26°C° 0 mm 2 mps 745 mmHg 58%
    09:00 +26°C° 0 mm 2 mps 745 mmHg 60%
    10:00 +26°C° 0 mm 2 mps 745 mmHg 62%
    11:00 +26°C° 0 mm 2 mps 745 mmHg 64%
    12:00 +27°C° 0 mm 2 mps 744 mmHg 59%
    13:00 +28°C° 0 mm 2 mps 744 mmHg 54%
    14:00 +29°C° 0 mm 2 mps 744 mmHg 48%
    15:00 +31°C° 0 mm 2 mps 744 mmHg 43%
    16:00 +32°C° 0 mm 2 mps 743 mmHg 38%
    17:00 +34°C° 0 mm 2 mps 743 mmHg 33%
    18:00 +32°C° 0 mm 2 mps 743 mmHg 39%
    19:00 +30°C° 0 mm 2 mps 743 mmHg 45%
    20:00 +28°C° 0 mm 2 mps 743 mmHg 51%
    21:00 +27°C° 0.1 mm 2 mps 743 mmHg 56%
    22:00 +26°C° 0.1 mm 2 mps 743 mmHg 61%
    23:00 +25°C° 0.1 mm 2 mps 744 mmHg 67%

    28 July, Sunday

    Time Temperature Precipitation Wind Pressure Humidity
    00:00 +24°C° 0.1 mm 2 mps 744 mmHg 70%
    01:00 +24°C° 0.1 mm 2 mps 743 mmHg 74%
    02:00 +23°C° 0.1 mm 2 mps 743 mmHg 78%
    03:00 +21°C° 0 mm 2 mps 743 mmHg 80%
    04:00 +21°C° 0 mm 2 mps 743 mmHg 81%
    05:00 +21°C° 0 mm 1 mps 743 mmHg 83%
    06:00 +23°C° 0 mm 2 mps 743 mmHg 79%
    07:00 +24°C° 0 mm 2 mps 743 mmHg 74%
    08:00 +26°C° 0 mm 2 mps 743 mmHg 70%
    09:00 +27°C° 0 mm 1 mps 743 mmHg 63%
    10:00 +29°C° 0 mm 1 mps 743 mmHg 56%
    11:00 +29°C° 0 mm 0 mps 743 mmHg 49%
    12:00 +32°C° 0 mm 1 mps 742 mmHg 44%
    13:00 +33°C° 0 mm 1 mps 742 mmHg 40%
    14:00 +35°C° 0 mm 2 mps 742 mmHg 36%
    15:00 +35°C° 0 mm 2 mps 742 mmHg 36%
    16:00 +35°C° 0 mm 2 mps 741 mmHg 36%
    17:00 +35°C° 0 mm 3 mps 741 mmHg 36%
    18:00 +30°C° 1.3 mm 3 mps 742 mmHg 50%
    19:00 +27°C° 1.3 mm 3 mps 742 mmHg 65%
    20:00 +24°C° 1.3 mm 3 mps 742 mmHg 79%
    21:00 +23°C° 0.6 mm 2 mps 742 mmHg 82%
    22:00 +23°C° 0.6 mm 2 mps 743 mmHg 86%
    23:00 +22°C° 0.6 mm 1 mps 743 mmHg 89%

    29 July, Monday

    Time Temperature Precipitation Wind Pressure Humidity
    00:00 +21°C° 0.8 mm 2 mps 743 mmHg 90%
    01:00 +21°C° 0.8 mm 2 mps 743 mmHg 91%
    02:00 +21°C° 0.8 mm 2 mps 743 mmHg 92%
    03:00 +21°C° 0.2 mm 2 mps 743 mmHg 93%
    04:00 +22°C° 0.2 mm 1 mps 743 mmHg 93%
    05:00 +22°C° 0.2 mm 1 mps 743 mmHg 93%
    06:00 +22°C° 0.4 mm 1 mps 744 mmHg 90%
    07:00 +23°C° 0.4 mm 1 mps 744 mmHg 87%
    08:00 +24°C° 0.4 mm 1 mps 744 mmHg 83%
    09:00 +24°C° 0.1 mm 1 mps 744 mmHg 80%
    10:00 +25°C° 0.1 mm 2 mps 744 mmHg 77%
    11:00 +25°C° 0.1 mm 2 mps 744 mmHg 74%
    12:00 +26°C° 0 mm 2 mps 744 mmHg 70%
    13:00 +27°C° 0 mm 2 mps 744 mmHg 66%
    14:00 +28°C° 0 mm 1 mps 744 mmHg 61%
    15:00 +29°C° 0.2 mm 2 mps 744 mmHg 58%
    16:00 +30°C° 0.2 mm 2 mps 744 mmHg 56%
    17:00 +30°C° 0.2 mm 2 mps 744 mmHg 53%
    18:00 +29°C° 0 mm 3 mps 744 mmHg 58%
    19:00 +28°C° 0 mm 3 mps 744 mmHg 64%
    20:00 +26°C° 0 mm 3 mps 744 mmHg 69%
    21:00 +25°C° 0.2 mm 3 mps 745 mmHg 71%
    22:00 +25°C° 0.2 mm 3 mps 745 mmHg 73%
    23:00 +24°C° 0.2 mm 3 mps 746 mmHg 75%
    Show more